ISS (ZARYA)

Last updated on Sun Apr 12 2026 00:02:13 GMT+0000 (Coordinated Universal Time)

1 25544U 98067A 26101.48935997 .00006038 00000+0 11816-3 0 9990 2 25544 51.6326 270.1822 0006432 299.5706 60.4641 15.48873216561413
UTC large
Height (km)
Speed (km/s)
/
Latitude / Longitude
Inclination (degrees)
Orbital Period (minutes)
Azimuth
Elevation
Range (km)
Doppler Factor

Next 0 passes for location: London (51.5072 / 0.1276)

Sorry there are no passes over London.
ISS (ZARYA)